Tracking 17694 objects as of 27-May-2016
HD Live streaming from Space Station
objects crossing your sky now

CZ-4B DEB

Track CZ-4B DEB now!
10-day predictions


NORAD ID: 36290
Int'l Code: 2008-053L
Perigee: 565.7 km
Apogee: 596.0 km
Inclination: 97.6 °
Period: 96.1 minutes
Semi major axis: 6951 km
RCS: 0.0218 m2 (small)
Launch date: October 25, 2008
Source: People's Republic of China (PRC)
Launch site: Taiyaun Space Center, China (TSC)

Note: This is SATELLITE DEBRIS
Your satellite tracking list
Your tracking list is empty





NASA's NSSDC Master Catalog

Two Line Element Set (TLE):
1 36290U 08053L   16147.23890504  .00000153  00000-0  17806-4 0  9991
2 36290  97.5625 141.3148 0021761  39.1445 321.1347 14.97790210392185
Source of the keplerian elements: AFSPC

N2YO: 847